timestamp,wind_dir_avg,wind_spd_avg,wind_spd_max_dir,wind_spd_gust,battery_voltage,lat,long
2020-12-08 00:04:01+00:00,231.0,7.8,238.0,8.71,12.57,47.59359,-54.27349
2020-12-08 00:14:01+00:00,234.0,7.11,233.0,8.58,12.57,47.59359,-54.27349
2020-12-08 00:24:01+00:00,248.0,7.83,245.0,8.36,12.57,47.59359,-54.27349
2020-12-08 00:34:01+00:00,239.0,7.49,237.0,8.44,12.57,47.59359,-54.27349
2020-12-08 00:44:01+00:00,235.0,6.9,234.0,8.44,12.57,47.59359,-54.27349
2020-12-08 00:54:01+00:00,231.0,7.41,234.0,8.89,12.57,47.59359,-54.27349
2020-12-08 01:04:01+00:00,234.0,7.78,242.0,9.61,12.57,47.59359,-54.27349
2020-12-08 01:14:01+00:00,245.0,7.95,245.0,8.76,12.57,47.59359,-54.27349
2020-12-08 01:24:01+00:00,239.0,7.23,245.0,8.26,12.57,47.59359,-54.27349
2020-12-08 01:34:01+00:00,239.0,7.46,242.0,8.47,12.57,47.59359,-54.27349
2020-12-08 01:44:01+00:00,233.0,6.03,232.0,7.93,12.57,47.59359,-54.27349
2020-12-08 01:54:01+00:00,232.0,6.96,224.0,8.57,12.57,47.59359,-54.27349
2020-12-08 02:04:01+00:00,232.0,8.62,235.0,9.81,12.57,47.59359,-54.27349
2020-12-08 02:14:01+00:00,231.0,7.18,233.0,9.01,12.57,47.59359,-54.27349
2020-12-08 02:24:01+00:00,235.0,7.76,234.0,8.97,12.57,47.59359,-54.27349
2020-12-08 02:34:01+00:00,234.0,8.48,235.0,9.1,12.57,47.59359,-54.27349
2020-12-08 02:44:01+00:00,231.0,7.5,233.0,9.03,12.57,47.59359,-54.27349
2020-12-08 02:54:01+00:00,232.0,6.27,236.0,7.5,12.57,47.59359,-54.27349
2020-12-08 03:04:01+00:00,240.0,7.59,241.0,8.65,12.57,47.59359,-54.27349
2020-12-08 03:14:01+00:00,237.0,8.46,238.0,9.76,12.49,47.59359,-54.27349
2020-12-08 03:24:01+00:00,235.0,8.56,245.0,10.0,12.49,47.59359,-54.27349
2020-12-08 03:34:01+00:00,242.0,10.18,244.0,11.85,12.49,47.59359,-54.27349
2020-12-08 03:44:01+00:00,233.0,9.94,240.0,11.01,12.49,47.59359,-54.27349
2020-12-08 03:54:01+00:00,239.0,9.56,241.0,10.97,12.49,47.59359,-54.27349
2020-12-08 04:04:01+00:00,237.0,9.87,236.0,11.18,12.49,47.59359,-54.27349
2020-12-08 04:14:01+00:00,243.0,10.92,244.0,12.76,12.49,47.59359,-54.27349
2020-12-08 04:24:01+00:00,241.0,10.44,237.0,12.19,12.49,47.59359,-54.27349
2020-12-08 04:34:01+00:00,246.0,8.96,239.0,10.02,12.49,47.59359,-54.27349
2020-12-08 04:44:01+00:00,240.0,10.57,244.0,11.62,12.49,47.59359,-54.27349
2020-12-08 04:54:01+00:00,246.0,10.01,241.0,11.3,12.49,47.59359,-54.27349
2020-12-08 05:04:01+00:00,252.0,9.21,253.0,10.85,12.49,47.59359,-54.27349
2020-12-08 05:14:01+00:00,241.0,8.54,235.0,9.48,12.49,47.59359,-54.27349
2020-12-08 05:24:01+00:00,251.0,8.45,250.0,9.52,12.49,47.59359,-54.27349
2020-12-08 05:34:01+00:00,253.0,8.13,252.0,8.94,12.49,47.59359,-54.27349
2020-12-08 05:44:01+00:00,249.0,8.86,251.0,9.63,12.49,47.59359,-54.27349
2020-12-08 05:54:01+00:00,242.0,8.81,243.0,9.75,12.49,47.59359,-54.27349
2020-12-08 06:04:01+00:00,245.0,8.56,245.0,9.08,12.49,47.59359,-54.27349
2020-12-08 06:14:01+00:00,250.0,8.63,259.0,9.92,12.49,47.59359,-54.27349
2020-12-08 06:24:01+00:00,241.0,8.15,246.0,9.46,12.49,47.59359,-54.27349
2020-12-08 06:34:01+00:00,237.0,9.19,234.0,10.28,12.49,47.59359,-54.27349
2020-12-08 06:44:01+00:00,252.0,8.72,251.0,10.42,12.49,47.59359,-54.27349
2020-12-08 06:54:01+00:00,244.0,9.63,245.0,10.87,12.49,47.59359,-54.27349
2020-12-08 07:04:01+00:00,248.0,9.0,243.0,9.92,12.49,47.59359,-54.27349
2020-12-08 07:14:01+00:00,246.0,8.98,243.0,10.13,12.49,47.59359,-54.27349
2020-12-08 07:24:01+00:00,252.0,8.75,262.0,10.59,12.49,47.59359,-54.27349
2020-12-08 07:34:01+00:00,249.0,9.09,247.0,10.51,12.49,47.59359,-54.27349
2020-12-08 07:44:01+00:00,249.0,9.6,252.0,10.59,12.49,47.59359,-54.27349
2020-12-08 07:54:01+00:00,249.0,8.68,239.0,9.97,12.49,47.59359,-54.27349
2020-12-08 08:04:01+00:00,251.0,8.28,250.0,9.11,12.49,47.59359,-54.27349
2020-12-08 08:14:01+00:00,255.0,8.99,254.0,9.99,12.41,47.59359,-54.27349
2020-12-08 08:24:01+00:00,258.0,8.35,254.0,9.28,12.41,47.59359,-54.27349
2020-12-08 08:34:01+00:00,249.0,8.47,250.0,9.3,12.41,47.59359,-54.27349
2020-12-08 08:44:01+00:00,268.0,7.28,267.0,7.84,12.41,47.59359,-54.27349
2020-12-08 08:54:01+00:00,270.0,6.81,274.0,7.34,12.41,47.59359,-54.27349
2020-12-08 09:04:01+00:00,264.0,7.56,260.0,8.64,12.41,47.59359,-54.27349
2020-12-08 09:14:01+00:00,249.0,8.29,246.0,9.79,12.41,47.59359,-54.27349
2020-12-08 09:24:01+00:00,256.0,7.67,255.0,8.6,12.41,47.59359,-54.27349
2020-12-08 09:34:01+00:00,256.0,7.65,258.0,8.18,12.41,47.59359,-54.27349
2020-12-08 09:44:01+00:00,261.0,6.93,258.0,7.57,12.41,47.59359,-54.27349
2020-12-08 09:54:01+00:00,234.0,8.6,234.0,9.78,12.41,47.59359,-54.27349
2020-12-08 10:04:01+00:00,237.0,8.29,244.0,10.95,12.41,47.59359,-54.27349
2020-12-08 10:14:01+00:00,242.0,7.47,237.0,8.21,12.41,47.59359,-54.27349
2020-12-08 10:24:01+00:00,229.0,5.48,225.0,6.42,12.41,47.59359,-54.27349
2020-12-08 10:34:01+00:00,232.0,6.62,231.0,7.49,12.41,47.59359,-54.27349
2020-12-08 10:44:01+00:00,236.0,7.38,238.0,8.59,12.41,47.59359,-54.27349
2020-12-08 10:54:01+00:00,238.0,6.94,238.0,7.85,12.41,47.59359,-54.27349
2020-12-08 11:04:01+00:00,237.0,7.08,234.0,8.03,12.41,47.59359,-54.27349
2020-12-08 11:14:01+00:00,245.0,6.99,248.0,7.88,12.41,47.59359,-54.27349
2020-12-08 11:24:01+00:00,237.0,6.13,236.0,6.89,12.41,47.59359,-54.27349
2020-12-08 11:34:01+00:00,234.0,7.26,234.0,7.84,12.41,47.59359,-54.27349
2020-12-08 11:44:01+00:00,233.0,6.82,235.0,7.79,12.41,47.59359,-54.27349
2020-12-08 11:54:01+00:00,234.0,6.87,234.0,8.46,12.41,47.59359,-54.27349
2020-12-08 12:04:01+00:00,229.0,6.66,233.0,7.82,12.41,47.59359,-54.27349
2020-12-08 12:14:01+00:00,228.0,6.37,225.0,7.74,12.81,47.59359,-54.27349
2020-12-08 12:24:01+00:00,233.0,6.49,230.0,7.63,12.81,47.59359,-54.27349
2020-12-08 12:34:01+00:00,223.0,5.88,219.0,6.93,12.81,47.59359,-54.27349
2020-12-08 12:44:01+00:00,231.0,5.85,235.0,7.03,12.81,47.59359,-54.27349
2020-12-08 12:54:01+00:00,235.0,5.72,235.0,6.79,12.81,47.59359,-54.27349
2020-12-08 13:04:01+00:00,232.0,5.83,235.0,7.23,12.81,47.59359,-54.27349
2020-12-08 13:14:01+00:00,228.0,6.12,229.0,7.02,13.29,47.59359,-54.27349
2020-12-08 13:24:01+00:00,234.0,5.98,238.0,6.86,13.29,47.59359,-54.27349
2020-12-08 13:34:01+00:00,239.0,7.27,230.0,8.76,13.29,47.59359,-54.27349
2020-12-08 13:44:01+00:00,233.0,6.54,236.0,7.63,13.29,47.59359,-54.27349
2020-12-08 13:54:01+00:00,248.0,6.47,248.0,6.93,13.29,47.59359,-54.27349
2020-12-08 14:04:01+00:00,248.0,4.92,254.0,6.07,13.29,47.59359,-54.27349
2020-12-08 14:14:01+00:00,243.0,6.31,243.0,6.86,14.24,47.59359,-54.27349
2020-12-08 14:24:01+00:00,243.0,5.56,246.0,6.09,14.24,47.59359,-54.27349
2020-12-08 14:34:01+00:00,229.0,4.82,234.0,5.78,14.24,47.59359,-54.27349
2020-12-08 14:44:01+00:00,228.0,5.98,226.0,7.22,14.24,47.59359,-54.27349
2020-12-08 14:54:01+00:00,231.0,5.25,231.0,6.34,14.24,47.59359,-54.27349
2020-12-08 15:04:01+00:00,229.0,5.64,222.0,6.47,14.24,47.59359,-54.27349
2020-12-08 15:14:01+00:00,231.0,5.71,229.0,6.78,13.53,47.59359,-54.27349
2020-12-08 15:24:01+00:00,249.0,3.8,243.0,4.28,13.53,47.59359,-54.27349
2020-12-08 15:34:01+00:00,245.0,5.38,243.0,6.01,13.53,47.59359,-54.27349
2020-12-08 15:44:01+00:00,242.0,4.41,246.0,5.07,13.53,47.59359,-54.27349
2020-12-08 15:54:01+00:00,231.0,4.54,230.0,5.23,13.53,47.59359,-54.27349
2020-12-08 16:04:01+00:00,222.0,4.4,216.0,4.99,13.53,47.59359,-54.27349
2020-12-08 16:14:01+00:00,226.0,3.86,234.0,5.05,13.6,47.59359,-54.27349
2020-12-08 16:24:01+00:00,231.0,2.39,226.0,2.93,13.6,47.59359,-54.27349
2020-12-08 16:34:01+00:00,252.0,1.62,251.0,1.82,13.6,47.59359,-54.27349
2020-12-08 16:44:01+00:00,241.0,1.36,238.0,1.63,13.6,47.59359,-54.27349
2020-12-08 16:54:01+00:00,225.0,1.8,223.0,2.1,13.6,47.59359,-54.27349
2020-12-08 17:04:01+00:00,207.0,1.4,209.0,2.14,13.6,47.59359,-54.27349
2020-12-08 17:14:01+00:00,200.0,1.75,203.0,2.16,13.21,47.59359,-54.27349
2020-12-08 17:24:01+00:00,168.0,1.66,159.0,2.05,13.21,47.59359,-54.27349
2020-12-08 17:34:01+00:00,164.0,2.25,164.0,2.67,13.21,47.59359,-54.27349
2020-12-08 17:44:01+00:00,137.0,1.42,138.0,1.62,13.21,47.59359,-54.27349
2020-12-08 17:54:01+00:00,139.0,1.48,142.0,1.71,13.21,47.59359,-54.27349
2020-12-08 18:04:01+00:00,141.0,2.62,141.0,3.07,13.21,47.59359,-54.27349
2020-12-08 18:14:01+00:00,113.0,1.5,127.0,1.96,12.97,47.59359,-54.27349
2020-12-08 18:24:01+00:00,140.0,2.34,143.0,3.03,12.97,47.59359,-54.27349
2020-12-08 18:34:01+00:00,126.0,2.18,123.0,2.62,12.97,47.59359,-54.27349
2020-12-08 18:44:01+00:00,81.0,1.21,64.0,2.12,12.97,47.59359,-54.27349
2020-12-08 18:54:01+00:00,82.0,1.82,64.0,2.8,12.97,47.59359,-54.27349
2020-12-08 19:04:01+00:00,102.0,2.99,112.0,4.57,12.97,47.59359,-54.27349
2020-12-08 19:14:01+00:00,105.0,3.86,104.0,4.94,12.65,47.59359,-54.27349
2020-12-08 19:24:01+00:00,103.0,3.13,104.0,4.37,12.65,47.59359,-54.27349
2020-12-08 19:34:01+00:00,96.0,2.86,89.0,5.19,12.65,47.59359,-54.27349
2020-12-08 19:44:01+00:00,84.0,3.19,89.0,5.52,12.65,47.59359,-54.27349
2020-12-08 19:54:01+00:00,84.0,3.68,76.0,6.7,12.65,47.59359,-54.27349
2020-12-08 20:04:01+00:00,76.0,4.7,70.0,6.37,12.65,47.59359,-54.27349
2020-12-08 20:14:01+00:00,69.0,7.86,60.0,9.12,12.57,47.59359,-54.27349
2020-12-08 20:24:01+00:00,69.0,8.39,69.0,9.18,12.57,47.59359,-54.27349
2020-12-08 20:34:01+00:00,66.0,8.71,68.0,9.57,12.57,47.59359,-54.27349
2020-12-08 20:44:01+00:00,67.0,10.22,62.0,12.12,12.57,47.59359,-54.27349
2020-12-08 20:54:01+00:00,61.0,9.38,60.0,10.85,12.57,47.59359,-54.27349
2020-12-08 21:04:01+00:00,55.0,10.24,54.0,11.83,12.57,47.59359,-54.27349
2020-12-08 21:14:01+00:00,64.0,10.23,65.0,11.34,12.57,47.59359,-54.27349
2020-12-08 21:24:01+00:00,55.0,11.46,58.0,12.63,12.57,47.59359,-54.27349
2020-12-08 21:34:01+00:00,58.0,11.3,56.0,12.4,12.57,47.59359,-54.27349
2020-12-08 21:44:01+00:00,68.0,10.66,67.0,11.9,12.57,47.59359,-54.27349
2020-12-08 21:54:01+00:00,60.0,10.49,63.0,13.84,12.57,47.59359,-54.27349
2020-12-08 22:04:01+00:00,61.0,9.81,57.0,10.84,12.57,47.59359,-54.27349
2020-12-08 22:14:01+00:00,62.0,9.59,59.0,11.08,12.57,47.59359,-54.27349
2020-12-08 22:24:01+00:00,56.0,12.05,56.0,13.2,12.57,47.59359,-54.27349
2020-12-08 22:34:01+00:00,54.0,12.71,53.0,14.58,12.57,47.59359,-54.27349
2020-12-08 22:44:01+00:00,58.0,13.73,61.0,15.87,12.57,47.59359,-54.27349
2020-12-08 22:54:01+00:00,52.0,12.75,51.0,15.65,12.57,47.59359,-54.27349
2020-12-08 23:04:01+00:00,54.0,13.49,51.0,15.47,12.57,47.59359,-54.27349
2020-12-08 23:14:01+00:00,54.0,15.0,52.0,17.36,12.49,47.59359,-54.27349
2020-12-08 23:24:01+00:00,56.0,15.26,53.0,17.33,12.49,47.59359,-54.27349
2020-12-08 23:34:01+00:00,54.0,13.47,53.0,15.4,12.49,47.59359,-54.27349
2020-12-08 23:44:01+00:00,53.0,12.71,55.0,14.85,12.49,47.59359,-54.27349
2020-12-08 23:54:01+00:00,56.0,14.15,60.0,15.8,12.49,47.59359,-54.27349
